#timestamp,LO_Frequency,Hit 
1504623615.2,286046997.2,N
1504623635.0,286046996.3,N
1504623635.9,286046996.3,N
1504623655.8,286046995.3,N
1504623675.6,286046999.1,N
1504623695.4,286046997.7,N
1504623715.3,286046994.1,N
1504623735.1,286046996.2,N
1504623755.8,286046997.7,N
1504623775.7,286046995.0,N
1504623795.5,286046996.3,N
1504623815.3,286046993.9,N
1504623835.2,286046993.0,N
1504623855.9,286046990.1,N
1504623875.7,286046989.0,N
1504623895.3,286046988.5,N
1504623915.1,286046992.9,N
1504623935.9,286046994.5,N
1504623955.7,286046995.0,N
1504623975.5,286046999.6,N
1504623995.4,286046997.1,N
1504624015.2,286046996.1,N
1504624035.0,286046997.4,N
1504624035.9,286046997.4,N
1504624055.8,286046999.3,N
1504624075.0,286046997.3,N
1504624075.9,286046997.3,N
1504624095.8,286046999.6,N
1504624115.6,286046996.6,N
1504624135.4,286046998.3,N
1504624155.3,286046997.3,N
1504624175.1,286046996.9,N
1504624176.0,286046996.9,N
1504624195.8,286046997.0,N
1504624215.7,286047001.1,N
1504624235.5,286047001.5,N
1504624255.3,286047003.2,N
1504624275.2,286047004.9,N
1504624295.9,286047004.6,N
1504624315.7,286047001.3,N
1504624335.5,286047002.6,N
1504624355.4,286047000.9,N
1504624375.2,286047001.8,N
1504624395.0,286046998.8,N
1504624395.9,286046998.8,N
1504624415.2,286046998.2,N
1504624435.1,286046998.6,N
1504624436.0,286046998.6,N
1504624455.8,286046996.2,N
1504624475.6,286046994.4,N
1504624495.5,286046992.2,P
1504624515.3,286046993.2,N
1504624535.1,286046988.5,P
1504624555.9,286046987.6,P
1504624575.7,286046996.2,N
1504624595.6,286046992.6,N
1504624615.4,286046992.5,N
1504624635.2,286046990.2,P
1504624655.1,286046998.9,N
1504624656.0,286046998.9,N
1504624675.8,286046998.4,N
1504624695.6,286047002.2,N
1504624715.5,286047002.1,N
1504624735.3,286047005.1,N
1504624755.1,286047005.3,N
1504624775.8,286047004.1,N
1504624795.7,286047003.0,N
1504624815.5,286047007.5,N
1504624835.3,286047004.3,N
1504624855.2,286047003.7,N
1504624875.9,286047002.7,N
1504624895.7,286047001.7,N
1504624915.6,286047003.9,N
1504624935.4,286047000.2,N
1504624955.2,286047000.6,N
1504624975.1,286047002.6,N
1504624976.0,286047002.6,N
1504624995.8,286047005.3,N
1504625015.6,286047005.4,N
1504625035.5,286047005.3,N
1504625055.3,286047004.7,N
1504625075.1,286047003.7,N
1504625095.9,286047000.2,N
1504625115.7,286047002.2,N
1504625135.5,286047000.9,N
1504625155.5,286046996.5,N
1504625175.3,286046999.3,N
1504625195.2,286046994.9,N
1504625215.0,286046993.3,N
1504625215.9,286046993.3,N
1504625235.7,286046993.7,N
1504625255.6,286046993.9,N
1504625275.4,286046994.7,N
1504625295.2,286046993.8,N
1504625315.1,286046993.6,N
1504625316.0,286046993.6,N
1504625335.8,286046995.6,N
1504625355.6,286046995.3,N
1504625375.5,286047000.7,N
1504625395.3,286046999.9,N
1504625415.1,286047001.1,N
1504625435.9,286047002.6,N
1504625455.7,286046998.5,N
1504625475.5,286047000.8,N
1504625495.4,286047001.0,N
1504625515.2,286046998.6,N
1504625535.0,286047001.0,N
1504625535.9,286047001.0,N
1504625555.8,286046999.2,N
1504625575.6,286046995.3,N
1504625595.4,286046994.0,N
1504625615.2,286046992.7,N
1504625635.1,286046990.7,N
1504625636.0,286046990.7,N
1504625655.8,286046991.4,N
1504625675.7,286046986.9,P
1504625695.5,286046990.1,N
1504625715.8,286046989.4,N
1504625735.6,286046989.6,N
1504625755.5,286046990.5,P
1504625775.3,286046998.4,P
1504625795.2,286046998.6,N
1504625815.9,286047000.8,N
1504625835.7,286046999.8,N
1504625855.5,286046998.1,N
1504625875.4,286046996.6,N
1504625895.2,286047000.7,N
1504625915.0,286047000.3,N
1504625935.1,286047001.6,N
1504625936.0,286047001.6,N
1504625955.8,286047001.5,N
1504625975.6,286047006.2,N
1504625995.5,286047010.3,N
1504626015.3,286047011.2,N
1504626035.1,286047008.6,N
1504626055.9,286047007.8,N
1504626075.7,286047010.1,N
1504626095.5,286047011.4,N
1504626115.4,286047012.2,N
1504626135.2,286047008.8,N
1504626155.0,286047005.0,N
1504626155.9,286047005.0,N
1504626175.7,286047007.3,N
1504626195.6,286047006.2,N
1504626215.4,286047008.9,N
1504626235.2,286047007.3,N
1504626255.1,286047005.6,N
1504626256.0,286047005.6,N
1504626275.8,286047001.7,N
1504626295.6,286047004.0,N
1504626315.4,286047006.0,N
1504626335.3,286047005.1,N
1504626355.1,286047007.4,N
1504626375.8,286047006.1,N
1504626395.7,286047012.3,P
1504626415.5,286047007.0,N
1504626435.4,286047007.4,N
1504626455.2,286047004.2,N
1504626475.0,286047002.5,N
1504626475.9,286047002.5,N
1504626495.8,286046998.5,N
1504626515.6,286047000.6,N
1504626535.4,286047001.6,N
1504626555.3,286047003.5,N
1504626575.1,286047003.2,N
1504626576.0,286047003.2,N
1504626595.8,286047003.4,N
1504626615.7,286047001.8,N
1504626635.5,286046998.7,N
1504626655.3,286046997.7,N
1504626675.2,286046995.5,N
1504626695.9,286046999.0,N
1504626715.7,286047000.7,N
1504626735.6,286046998.2,N
1504626755.4,286046996.7,N
1504626775.2,286046997.9,N
1504626795.0,286046995.9,N
1504626795.9,286046995.9,N
1504626815.8,286046994.0,N
1504626835.6,286046992.7,N
1504626855.4,286046991.2,N
1504626875.3,286046992.2,N
1504626895.1,286046992.6,N
1504626915.8,286046994.0,N
1504626935.7,286046993.2,N
1504626955.5,286046993.2,N
1504626975.3,286046992.5,N
1504626995.2,286046990.5,N
1504627015.9,286046987.3,P
1504627035.7,286046988.8,N
1504627055.6,286046989.7,N
1504627075.4,286046989.8,N
1504627095.2,286046989.6,N
1504627115.1,286046985.9,P
1504627116.0,286046985.9,P
1504627135.8,286047000.7,N
1504627155.2,286047003.1,N
1504627175.1,286047001.0,N
1504627176.0,286047001.0,N
1504627195.8,286047001.3,N
